User: anonymous   Login
Location: Hemaruka
(51.7801°N, 111.0917°W)
Time: 12:12:11
(UTC+00:00)
Language:

NOAA 15 - Orbit

View from above orbital plane
View from above orbital plane
View from above satellite
View from above satellite

Ground track
Ground track

The orbit data is extracted from the following two-line orbital elements,

1 25338U 98030A   24108.14652602  .00000579  00000-0  25803-3 0  9994
2 25338  98.5747 136.5336 0011230 138.8575 221.3454 14.26536846348735
Epoch (UTC): 17 April 2024 03:30:59
Eccentricity: 0.0011230
inclination: 98.5747°
perigee height: 795 km
apogee height: 811 km
right ascension of ascending node: 136.5336°
argument of perigee: 138.8575°
revolutions per day: 14.26536846
mean anomaly at epoch: 221.3454°
orbit number at epoch: 34873

The dashed part of the orbit path shows where the satellite is in the earth's shadow,  

DLR